Location: Home
(42.5358°N, 72.7383°W)
Time: 13:37:58
(UTC-04:00)

X-37B - Visible Passes

Search period start: 17 August 2022 00:00
Search period end: 27 August 2022 00:00
Orbit: 328 x 343 km, 45.0° (Epoch: 12 August)

Date Brightness Start Highest point End Pass type
(mag) Time Alt. Az. Time Alt. Az. Time Alt. Az.
17 Aug 3.1 04:09:22 11° SE 04:09:22 11° SE 04:09:33 10° SE visible
19 Aug 2.7 21:08:41 10° SSW 21:09:04 12° SSW 21:09:04 12° SSW visible
20 Aug 2.0 21:28:22 10° SW 21:29:43 24° SW 21:29:43 24° SW visible
21 Aug 1.9 20:14:08 10° SSW 20:16:17 19° SSE 20:18:26 10° E visible
21 Aug 2.3 21:48:40 10° WSW 21:50:00 24° WSW 21:50:00 24° WSW visible
22 Aug 0.6 20:33:49 10° SW 20:36:33 45° SSE 20:38:43 14° E visible
22 Aug 3.2 22:09:14 10° W 22:09:58 16° W 22:09:58 16° W visible
23 Aug 0.2 20:54:07 10° WSW 20:56:57 85° NNW 20:58:29 24° ENE visible
24 Aug 0.9 21:14:41 10° W 21:17:27 54° N 21:18:05 41° NE visible
25 Aug 1.5 21:35:15 10° WNW 21:37:35 42° NNW 21:37:35 42° NNW visible
26 Aug 0.9 20:20:07 10° W 20:22:53 54° N 20:25:40 10° ENE visible
26 Aug 2.8 21:55:46 10° WNW 21:57:01 22° WNW 21:57:01 22° WNW visible
